DW6169 Weather Reports


Display with metric or nautical units.
time (UTC)temp
F
wind
direction
speed
MPH
gust
MPH
rain 1hr
in
rain 24hr
in
rain mn
in
humidity
%
barometer
mb
20260510030558 81 0 0.0 0.0 0.00 0.00 0.00 73 1015.7
20260510025557 81 0 0.0 0.0 0.00 0.00 0.00 73 1015.7
20260510025057 81 0 0.0 0.0 0.00 0.00 0.00 73 1015.6
20260510024559 81 0 0.0 0.0 0.00 0.00 0.00 73 1015.6
20260510024057 81 0 0.0 0.0 0.00 0.00 0.00 73 1015.6
20260510023557 81 0 0.0 0.0 0.00 0.00 0.00 73 1015.5
20260510023059 81 0 0.0 0.0 0.00 0.00 0.00 72 1015.4
20260510022557 82 0 0.0 0.0 0.00 0.00 0.00 72 1015.4
20260510022101 82 0 0.0 1.0 0.00 0.00 0.00 72 1015.3
20260510021601 82 0 0.0 1.0 0.00 0.00 0.00 72 1015.2
20260510021057 82 0 0.0 1.0 0.00 0.00 0.00 72 1015.3
20260510020558 82 0 0.0 1.0 0.00 0.00 0.00 72 1015.2
20260510020058 82 0 0.0 1.0 0.00 0.00 0.00 71 1015.1
20260510015558 82 0 0.0 1.0 0.00 0.00 0.00 71 1015.0
20260510015057 82 0 0.0 2.0 0.00 0.00 0.00 71 1015.1
20260510014558 82 0 0.0 3.0 0.00 0.00 0.00 71 1015.1
20260510014057 82 0 0.0 4.0 0.00 0.00 0.00 71 1014.9
20260510013558 82 238 0.0 4.0 0.00 0.00 0.00 71 1014.9
20260510013058 82 0 0.0 4.0 0.00 0.00 0.00 71 1014.8
20260510012558 82 0 0.0 3.0 0.00 0.00 0.00 71 1014.7
20260510012058 82 0 0.0 3.0 0.00 0.00 0.00 71 1014.5
20260510011603 82 239 0.0 4.0 0.00 0.00 0.00 71 1014.6
20260510011059 82 349 0.0 4.0 0.00 0.00 0.00 71 1014.4
20260510010558 82 236 0.0 4.0 0.00 0.00 0.00 70 1014.4
20260510010109 82 0 0.0 7.0 0.00 0.00 0.00 70 1014.4
20260510005558 83 259 1.0 7.0 0.00 0.00 0.00 70 1014.3
20260510005058 83 0 0.0 4.0 0.00 0.00 0.00 70 1014.2
20260510004558 83 86 0.0 3.0 0.00 0.00 0.00 70 1014.2
20260510004058 83 0 0.0 3.0 0.00 0.00 0.00 70 1014.0
20260510003559 83 279 0.0 3.0 0.00 0.00 0.00 70 1013.8
20260510003057 83 28 0.0 3.0 0.00 0.00 0.00 70 1013.8
20260510002604 83 127 0.0 5.0 0.00 0.00 0.00 70 1013.7
20260510002101 83 161 0.0 5.0 0.00 0.00 0.00 70 1013.7
20260510001600 83 319 0.0 5.0 0.00 0.00 0.00 69 1013.7
20260510001101 84 334 0.0 7.0 0.00 0.00 0.00 69 1013.5
20260510000602 84 127 0.0 7.0 0.00 0.00 0.00 69 1013.5
20260510000107 84 0 1.0 7.0 0.00 0.00 0.00 68 1013.4
20260509235602 84 0 0.0 3.0 0.00 0.00 0.00 67 1013.1
20260509235100 84 0 1.0 4.0 0.00 0.00 0.00 67 1013.1
20260509234603 84 0 0.0 4.0 0.00 0.00 0.00 66 1013.1
20260509234101 84 0 0.0 3.0 0.00 0.00 0.00 66 1013.1
20260509233559 84 0 0.0 3.0 0.00 0.00 0.00 66 1013.2
20260509233100 84 257 0.0 4.0 0.00 0.00 0.00 66 1013.2
20260509232602 85 261 0.0 7.0 0.00 0.00 0.00 66 1013.1
20260509232102 85 0 1.0 7.0 0.00 0.00 0.00 66 1013.1
20260509231601 85 120 1.0 6.0 0.00 0.00 0.00 65 1013.1
20260509231101 85 0 1.0 7.0 0.00 0.00 0.00 66 1013.0
20260509230601 85 228 1.0 7.0 0.00 0.00 0.00 65 1012.9
20260509225602 86 0 0.0 6.0 0.00 0.00 0.00 66 1012.8
20260509225100 86 202 1.0 6.0 0.00 0.00 0.00 66 1012.8
20260509224559 87 176 1.0 4.0 0.00 0.00 0.00 67 1012.8
20260509224103 87 0 0.0 9.0 0.00 0.00 0.00 66 1012.8
20260509223602 87 264 1.0 9.0 0.00 0.00 0.00 64 1012.8
20260509223107 88 190 0.0 8.0 0.00 0.00 0.00 64 1012.8
20260509222601 88 0 1.0 8.0 0.00 0.00 0.00 64 1012.8
20260509222101 88 252 0.0 6.0 0.00 0.00 0.00 64 1012.7
20260509221601 89 197 1.0 6.0 0.00 0.00 0.00 63 1012.8
20260509221101 89 346 1.0 7.0 0.00 0.00 0.00 61 1012.7
20260509220601 90 186 1.0 7.0 0.00 0.00 0.00 62 1012.7
20260509215558 90 349 1.0 7.0 0.00 0.00 0.00 61 1012.8
20260509215058 90 231 1.0 7.0 0.00 0.00 0.00 62 1012.7
20260509214602 90 213 1.0 7.0 0.00 0.00 0.00 62 1012.5
20260509214102 90 153 1.0 7.0 0.00 0.00 0.00 62 1012.8
20260509213559 90 0 0.0 6.0 0.00 0.00 0.00 64 1012.5
20260509213100 90 0 1.0 7.0 0.00 0.00 0.00 63 1012.6
20260509212601 90 131 1.0 7.0 0.00 0.00 0.00 63 1012.8
20260509212100 91 202 1.0 6.0 0.00 0.00 0.00 64 1012.7
20260509211603 91 286 1.0 11.0 0.00 0.00 0.00 64 1012.6
20260509211103 91 236 2.0 11.0 0.00 0.00 0.00 64 1012.7
20260509210601 91 118 3.0 11.0 0.00 0.00 0.00 62 1012.7
20260509210108 92 153 2.0 10.0 0.00 0.00 0.00 62 1012.8
20260509205600 92 128 2.0 10.0 0.00 0.00 0.00 60 1012.7
20260509205100 93 255 2.0 10.0 0.00 0.00 0.00 60 1012.7
20260509204602 93 98 1.0 10.0 0.00 0.00 0.00 60 1012.7
20260509204101 94 0 2.0 10.0 0.00 0.00 0.00 59 1012.8
20260509203603 94 128 1.0 8.0 0.00 0.00 0.00 58 1012.8
20260509203100 94 218 1.0 8.0 0.00 0.00 0.00 58 1012.9
20260509202602 94 159 1.0 8.0 0.00 0.00 0.00 55 1013.0
20260509202101 94 287 1.0 7.0 0.00 0.00 0.00 57 1013.0
20260509201609 93 232 1.0 8.0 0.00 0.00 0.00 52 1013.0
20260509201101 93 233 2.0 8.0 0.00 0.00 0.00 56 1013.1
20260509200601 93 113 1.0 6.0 0.00 0.00 0.00 58 1013.1
20260509200109 93 225 2.0 7.0 0.00 0.00 0.00 59 1013.1
20260509195604 93 209 1.0 8.0 0.00 0.00 0.00 60 1013.2
20260509195101 93 111 2.0 9.0 0.00 0.00 0.00 60 1013.2
20260509194605 93 65 2.0 9.0 0.00 0.00 0.00 60 1013.2
20260509194101 93 236 3.0 9.0 0.00 0.00 0.00 59 1013.2
20260509193601 94 190 2.0 9.0 0.00 0.00 0.00 58 1013.2
20260509193102 94 138 2.0 9.0 0.00 0.00 0.00 59 1013.2
20260509192602 94 153 2.0 9.0 0.00 0.00 0.00 59 1013.2
20260509192058 94 117 1.0 8.0 0.00 0.00 0.00 59 1013.3
20260509191559 94 103 1.0 8.0 0.00 0.00 0.00 59 1013.3
20260509191100 94 0 1.0 7.0 0.00 0.00 0.00 60 1013.4
20260509190601 93 136 1.0 7.0 0.00 0.00 0.00 60 1013.4
20260509190101 93 278 1.0 7.0 0.00 0.00 0.00 61 1013.4
20260509185601 94 207 1.0 8.0 0.00 0.00 0.00 60 1013.7
20260509185101 94 240 2.0 11.0 0.00 0.00 0.00 59 1013.7
20260509184608 94 254 2.0 11.0 0.00 0.00 0.00 57 1013.7
20260509184102 95 51 1.0 4.0 0.00 0.00 0.00 58 1013.7
20260509183601 95 0 1.0 7.0 0.00 0.00 0.00 58 1013.8
20260509183059 94 0 2.0 8.0 0.00 0.00 0.00 57 1013.8
20260509182601 95 156 1.0 8.0 0.00 0.00 0.00 57 1013.9
20260509182100 94 240 1.0 9.0 0.00 0.00 0.00 58 1013.9
20260509181622 94 327 1.0 9.0 0.00 0.00 0.00 56 1014.0
20260509181059 95 150 2.0 11.0 0.00 0.00 0.00 56 1014.1
20260509180558 95 0 1.0 12.0 0.00 0.00 0.00 55 1014.1
20260509180059 95 160 1.0 12.0 0.00 0.00 0.00 55 1014.1
20260509175600 95 0 1.0 6.0 0.00 0.00 0.00 56 1014.3
20260509175058 95 0 1.0 8.0 0.00 0.00 0.00 55 1014.3
20260509174602 94 0 2.0 8.0 0.00 0.00 0.00 52 1014.4
20260509174100 95 227 1.0 7.0 0.00 0.00 0.00 53 1014.5
20260509173557 95 166 1.0 8.0 0.00 0.00 0.00 56 1014.4
20260509173105 94 217 2.0 8.0 0.00 0.00 0.00 53 1014.4
20260509172557 94 0 1.0 8.0 0.00 0.00 0.00 53 1014.5
20260509172100 94 198 1.0 8.0 0.00 0.00 0.00 61 1014.6
20260509171558 94 292 1.0 7.0 0.00 0.00 0.00 61 1014.5
20260509171057 94 99 1.0 7.0 0.00 0.00 0.00 53 1014.6
20260509170557 94 209 1.0 12.0 0.00 0.00 0.00 53 1014.5
20260509170059 94 0 0.0 12.0 0.00 0.00 0.00 54 1014.5
20260509165557 93 86 2.0 12.0 0.00 0.00 0.00 54 1014.6
20260509165100 93 271 1.0 11.0 0.00 0.00 0.00 56 1014.7
20260509164557 93 0 2.0 11.0 0.00 0.00 0.00 54 1014.8
20260509164057 93 245 1.0 7.0 0.00 0.00 0.00 55 1014.9
20260509163602 93 0 2.0 9.0 0.00 0.00 0.00 56 1014.9
20260509163059 93 292 1.0 9.0 0.00 0.00 0.00 58 1015.0
20260509162559 93 249 1.0 9.0 0.00 0.00 0.00 61 1015.1
20260509162102 93 121 2.0 6.0 0.00 0.00 0.00 62 1015.1
20260509161603 93 200 1.0 6.0 0.00 0.00 0.00 62 1015.0
20260509161058 93 154 1.0 6.0 0.00 0.00 0.00 62 1015.0
20260509160602 93 0 1.0 6.0 0.00 0.00 0.00 61 1015.1
20260509160057 92 0 1.0 7.0 0.00 0.00 0.00 61 1015.1
20260509155557 91 244 1.0 9.0 0.00 0.00 0.00 61 1015.1
20260509155057 91 268 2.0 9.0 0.00 0.00 0.00 62 1015.3
20260509154559 91 180 1.0 4.0 0.00 0.00 0.00 63 1015.2
20260509154058 91 170 0.0 6.0 0.00 0.00 0.00 65 1015.1
20260509153558 90 0 0.0 6.0 0.00 0.00 0.00 65 1015.2
20260509153059 90 275 1.0 9.0 0.00 0.00 0.00 66 1015.2
20260509152558 90 147 0.0 10.0 0.00 0.00 0.00 68 1015.2
20260509152100 90 92 0.0 10.0 0.00 0.00 0.00 68 1015.3
20260509151604 89 0 2.0 10.0 0.00 0.00 0.00 67 1015.3
20260509151057 90 0 3.0 7.0 0.00 0.00 0.00 67 1015.3
20260509150558 90 0 1.0 9.0 0.00 0.00 0.00 67 1015.3
20260509145559 89 130 1.0 8.0 0.00 0.00 0.00 68 1015.3
20260509145101 89 131 1.0 6.0 0.00 0.00 0.00 68 1015.3
20260509144610 89 130 2.0 6.0 0.00 0.00 0.00 68 1015.2
20260509144103 89 182 1.0 8.0 0.00 0.00 0.00 69 1015.1
20260509143558 89 96 1.0 8.0 0.00 0.00 0.00 69 1015.0
20260509143124 89 151 0.0 8.0 0.00 0.00 0.00 69 1014.9
20260509142600 89 82 1.0 8.0 0.00 0.00 0.00 69 1015.0
20260509142102 88 118 0.0 5.0 0.00 0.00 0.00 70 1015.0
20260509141558 88 0 0.0 5.0 0.00 0.00 0.00 70 1015.0
20260509141058 88 0 0.0 7.0 0.00 0.00 0.00 70 1015.0
20260509140601 87 319 0.0 7.0 0.00 0.00 0.00 70 1015.1
20260509140107 87 116 1.0 8.0 0.00 0.00 0.00 70 1015.0
20260509135602 87 0 1.0 8.0 0.00 0.00 0.00 72 1015.1
20260509135104 86 132 0.0 5.0 0.00 0.00 0.00 73 1015.0
20260509134613 86 157 0.0 3.0 0.00 0.00 0.00 74 1014.9
20260509134104 85 0 0.0 4.0 0.00 0.00 0.00 74 1015.0
20260509133600 85 0 0.0 4.0 0.00 0.00 0.00 76 1014.9
20260509133059 84 0 0.0 4.0 0.00 0.00 0.00 77 1015.0
20260509132602 84 0 0.0 0.0 0.00 0.00 0.00 78 1015.0
20260509132101 83 0 0.0 0.0 0.00 0.00 0.00 79 1015.0
20260509131601 82 0 0.0 0.0 0.00 0.00 0.00 80 1015.0
20260509131100 82 0 0.0 0.0 0.00 0.00 0.00 81 1014.9
20260509130601 81 0 0.0 0.0 0.00 0.00 0.00 83 1014.8
20260509125600 80 0 0.0 0.0 0.00 0.00 0.00 84 1014.9
20260509125058 80 0 0.0 0.0 0.00 0.00 0.00 84 1015.0
20260509124600 80 0 0.0 0.0 0.00 0.00 0.00 85 1015.1
20260509124058 79 0 0.0 0.0 0.00 0.00 0.00 86 1015.1
20260509123558 79 0 0.0 0.0 0.00 0.00 0.00 86 1015.1
20260509123132 78 0 0.0 0.0 0.00 0.00 0.00 87 1015.0
20260509122600 78 0 0.0 0.0 0.00 0.00 0.00 87 1015.0
20260509122102 78 0 0.0 0.0 0.00 0.00 0.00 87 1015.0
20260509121613 77 0 0.0 0.0 0.00 0.00 0.00 87 1015.0
20260509121059 77 0 0.0 0.0 0.00 0.00 0.00 88 1014.9
20260509120600 77 0 0.0 0.0 0.00 0.00 0.00 88 1014.8
20260509120115 76 0 0.0 0.0 0.00 0.00 0.00 88 1014.9
20260509115557 76 0 0.0 0.0 0.00 0.00 0.00 88 1015.0
20260509115057 76 0 0.0 0.0 0.00 0.00 0.00 88 1015.0
20260509114604 76 0 0.0 0.0 0.00 0.00 0.00 87 1014.9
20260509114058 75 0 0.0 0.0 0.00 0.00 0.00 87 1014.9
20260509113559 75 0 0.0 0.0 0.00 0.00 0.00 87 1014.8
20260509113103 75 0 0.0 0.0 0.00 0.00 0.00 87 1014.6
20260509112557 75 0 0.0 0.0 0.00 0.00 0.00 87 1014.8
20260509112058 75 0 0.0 0.0 0.00 0.00 0.00 87 1014.7
20260509111607 75 0 0.0 0.0 0.00 0.00 0.00 87 1014.7
20260509111059 75 0 0.0 0.0 0.00 0.00 0.00 87 1014.7
20260509110557 75 0 0.0 0.0 0.00 0.00 0.00 87 1014.7
20260509110106 75 0 0.0 0.0 0.00 0.00 0.00 87 1014.6
20260509105557 75 0 0.0 0.0 0.00 0.00 0.00 87 1014.5
20260509105058 75 0 0.0 0.0 0.00 0.00 0.00 86 1014.4
20260509104600 75 0 0.0 0.0 0.00 0.00 0.00 86 1014.4
20260509104058 76 0 0.0 0.0 0.00 0.00 0.00 86 1014.3
20260509103557 76 0 0.0 0.0 0.00 0.00 0.00 86 1014.2
20260509103106 76 0 0.0 0.0 0.00 0.00 0.00 86 1014.3
20260509102557 76 0 0.0 0.0 0.00 0.00 0.00 86 1014.2
20260509102058 76 0 0.0 0.0 0.00 0.00 0.00 86 1014.2
20260509101624 76 0 0.0 0.0 0.00 0.00 0.00 86 1014.1
20260509101058 76 0 0.0 0.0 0.00 0.00 0.00 86 1014.1
20260509100558 76 0 0.0 0.0 0.00 0.00 0.00 86 1014.1
20260509100100 76 0 0.0 1.0 0.00 0.00 0.00 86 1014.2
20260509095558 75 0 0.0 1.0 0.00 0.00 0.00 85 1014.1
20260509095057 75 0 0.0 1.0 0.00 0.00 0.00 85 1013.9
20260509094604 75 0 0.0 0.0 0.00 0.00 0.00 85 1013.9
20260509094057 75 0 0.0 0.0 0.00 0.00 0.00 85 1014.0
20260509093557 75 0 0.0 0.0 0.00 0.00 0.00 84 1014.0
20260509093106 75 0 0.0 0.0 0.00 0.00 0.00 84 1013.9
20260509092557 75 0 0.0 0.0 0.00 0.00 0.00 84 1013.8
20260509092057 76 0 0.0 0.0 0.00 0.00 0.00 84 1013.8
20260509091604 76 0 0.0 0.0 0.00 0.00 0.00 84 1013.8
20260509091058 76 0 0.0 0.0 0.00 0.00 0.00 84 1013.8
20260509090559 76 0 0.0 0.0 0.00 0.00 0.00 84 1013.8
20260509085601 76 0 0.0 0.0 0.00 0.00 0.00 84 1013.7
20260509085101 76 0 0.0 0.0 0.00 0.00 0.00 84 1013.8
20260509084603 76 0 0.0 0.0 0.00 0.00 0.00 84 1013.8
20260509084101 76 0 0.0 0.0 0.00 0.00 0.00 84 1013.7
20260509083600 76 0 0.0 0.0 0.00 0.00 0.00 84 1013.8
20260509083059 77 0 0.0 0.0 0.00 0.00 0.00 84 1013.8
20260509082602 77 0 0.0 0.0 0.00 0.00 0.00 84 1013.7
20260509082102 77 0 0.0 0.0 0.00 0.00 0.00 84 1013.8
20260509081610 77 0 0.0 0.0 0.00 0.00 0.00 84 1013.7
20260509081102 77 0 0.0 0.0 0.00 0.00 0.00 84 1013.7
20260509080602 77 0 0.0 0.0 0.00 0.00 0.00 84 1013.7
20260509075600 77 0 0.0 0.0 0.00 0.00 0.00 84 1013.8
20260509075101 77 0 0.0 0.0 0.00 0.00 0.00 84 1013.7
20260509074600 77 0 0.0 0.0 0.00 0.00 0.00 84 1013.8
20260509074057 77 0 0.0 0.0 0.00 0.00 0.00 84 1013.8
20260509073604 77 0 0.0 0.0 0.00 0.00 0.00 84 1013.9
20260509073107 77 0 0.0 0.0 0.00 0.00 0.00 84 1013.9
20260509072602 77 0 0.0 0.0 0.00 0.00 0.00 84 1013.8
20260509072059 77 0 0.0 1.0 0.00 0.00 0.00 84 1014.0
20260509071601 77 0 0.0 1.0 0.00 0.00 0.00 84 1013.9
20260509071103 77 0 0.0 2.0 0.00 0.00 0.00 84 1014.0
20260509070601 77 0 0.0 2.0 0.00 0.00 0.00 84 1014.0
20260509065601 78 0 0.0 1.0 0.00 0.00 0.00 84 1014.1
20260509065102 78 0 0.0 2.0 0.00 0.00 0.00 84 1014.1
20260509064620 78 0 0.0 2.0 0.00 0.00 0.00 84 1014.1
20260509064104 78 0 0.0 0.0 0.00 0.00 0.00 84 1014.2
20260509063601 78 0 0.0 1.0 0.00 0.00 0.00 84 1014.3
20260509063101 78 0 0.0 1.0 0.00 0.00 0.00 84 1014.3
20260509062558 78 0 0.0 2.0 0.00 0.00 0.00 84 1014.3
20260509062100 78 136 0.0 3.0 0.00 0.00 0.00 84 1014.3
20260509061604 78 0 0.0 3.0 0.00 0.00 0.00 84 1014.4
20260509061101 78 0 0.0 3.0 0.00 0.00 0.00 84 1014.4
20260509060601 78 160 0.0 2.0 0.00 0.00 0.00 84 1014.5
20260509060058 78 0 0.0 2.0 0.00 0.00 0.00 84 1014.4
20260509055602 78 0 0.0 2.0 0.00 0.00 0.00 84 1014.4
20260509055100 78 0 0.0 2.0 0.00 0.00 0.00 84 1014.5
20260509054604 78 0 0.0 2.0 0.00 0.00 0.00 84 1014.6
20260509054100 79 0 0.0 2.0 0.00 0.00 0.00 84 1014.6
20260509053602 78 0 0.0 3.0 0.00 0.00 0.00 84 1014.6
20260509053111 79 0 0.0 3.0 0.00 0.00 0.00 84 1014.6
20260509052601 79 0 0.0 3.0 0.00 0.00 0.00 84 1014.9
20260509052101 78 0 0.0 3.0 0.00 0.00 0.00 84 1014.8
20260509051559 79 0 0.0 4.0 0.00 0.00 0.00 84 1014.9
20260509051058 79 0 0.0 4.0 0.00 0.00 0.00 84 1014.9
20260509050603 79 0 0.0 1.0 0.00 0.00 0.00 84 1014.9
20260509050101 79 0 0.0 1.0 0.00 0.00 0.00 84 1014.8
20260509045601 79 0 0.0 5.0 0.00 0.00 0.00 84 1014.9
20260509045101 79 0 0.0 5.0 0.00 0.00 0.00 84 1015.0
20260509044601 79 0 0.0 2.0 0.00 0.00 0.00 84 1015.1
20260509044101 79 0 0.0 0.0 0.00 0.00 0.00 84 1015.0
20260509043601 79 0 0.0 0.0 0.00 0.00 0.00 84 1015.0
20260509043104 79 0 0.0 0.0 0.00 0.00 0.00 84 1015.1
20260509042558 79 0 0.0 0.0 0.00 0.00 0.00 84 1015.2
20260509042101 79 0 0.0 1.0 0.00 0.00 0.00 84 1015.2
20260509041620 79 0 0.0 2.0 0.00 0.00 0.00 84 1015.2
20260509041102 79 0 0.0 2.0 0.00 0.00 0.00 84 1015.2
20260509040601 79 0 0.0 5.0 0.00 0.00 0.00 84 1015.2
20260509040100 79 0 0.0 5.0 0.00 0.00 0.00 84 1015.3
20260509035600 79 0 0.0 5.0 0.00 0.00 0.00 84 1015.4
20260509035103 79 97 0.0 3.0 0.00 0.00 0.00 83 1015.5
20260509034601 79 0 0.0 3.0 0.00 0.00 0.00 83 1015.5
20260509034101 79 0 0.0 3.0 0.00 0.00 0.00 83 1015.5
20260509033601 79 0 0.0 2.0 0.00 0.00 0.00 83 1015.6
20260509033101 79 0 0.0 2.0 0.00 0.00 0.00 83 1015.6
20260509032600 80 0 0.0 2.0 0.00 0.00 0.00 83 1015.5
20260509032059 80 0 0.0 2.0 0.00 0.00 0.00 83 1015.6
20260509031559 80 0 0.0 2.0 0.00 0.00 0.00 83 1015.5
20260509031104 80 0 0.0 3.0 0.00 0.00 0.00 83 1015.6